Showing default

VINASAT 1, 32767

Orbit data source: Space-Track

VINASAT 1, 32767 is a payload satellite owned by VNPT (VN) in GEO that was launched on Fri, 18 Apr 2008 UTC via an ARIANE 5ECA launch vehicle from the French Guiana (FRGUI). Payload-class satellites include a variety of spacecraft equipped with specific instruments for various scientific and technological missions. These include communications satellites like Starlink; space stations such as the ISS; scientific satellites like the Hubble; Earth observation satellites from companies like Planet Labs, Umbra, and HawkEye 360; GPS; miniature CubeSats for education and research; and military/defense satellites.

Not visible in the next 10 days
Identifier
32767, 2008-018A
Orbit
GEO
Last TLE update
14 hours ago
Origin
Manufacturer
LMCSS
Mission
Operational Civil Communications
Bus & Motor
A2100, LEROS 1C
Mass
2,600 kg wet, ~1,200 kg dry
Launch date (UTC)
2008-04-18 (17 years ago)
Launch vehicle
ARIANE 5ECA
Launch site
French Guiana (FRGUI)
Object type
Payload
Rocket body
Debris
Shape & HBR
Box + 2 Pan, 26 m
Radar Cross Section
27.474 m², Large (>1 m²)

Expand to show TLE details & history

TLE from 14 hours ago
0 VINASAT 1
1 32767U 08018A   25132.66426491 -.00000312  00000-0  00000-0 0  9990
2 32767   0.0129 345.2275 0001718  80.5218 176.0304  1.00272687 62572
Epoch: 2025-05-12T15:56Z
Definitive object data (Epoch: 2025-05-12T15:56:32.488Z)
Latitude
-0.02295°
Longitude
131.95903°
Altitude
35,793.097 km
Speed
3.074 km/s
True Right ascension
16h 07m 04s
True Declination
0° 01' 23"
Sunlit
Object was in daylight at TLE epoch
Visualization TLE readout
Latitude
0.01487°
Longitude
-10.74108°
Altitude
35,779.837 km
Speed
3.075 km/s
Apparent Right ascension
06h 15m 18s
Apparent Declination
-5° 09' 16"
Sunlit
Object is in daylight
Visualization observer readout
Local Sidereal Time
14:47:55
Azimuth
292.594° NW
Elevation
-31.976°
Doppler factor
1
Orbital elements
Apogee altitude
35,794.657 km
Perigee altitude
35,780.168 km
Semi-major axis
42,165.549 km
Eccentricity
0.0001718
Inclination
0.0129°
RAAN
345.2275°
Arg. of periapsis
80.5218°
True anomaly
176.03176°
Mean anomaly
176.0304°
Eccentric anomaly
176.03108°
Mean motion
0.25067 °/min
BSTAR
Unknown
Orbital period
1436.14 mins
Loading historical data...
32767 neighbors
Loading maneuver chart data...
Loading SW <> Apogee altitude chart data...
Loading historical data...
Loading historical data...
Loading historical data...
Loading historical data...
Loading historical data...
Loading historical data...
Loading historical data...
Other satellites on launch #18 in the year 2008 (2008-04-18 UTC)

VINASAT 1 Visibility forecast

Observer location: undefined°, undefined°

VINASAT 1 is not visible in the next 10 days
Span
Click to sort rows by Start time (UTC) header in descending order
Start Az.
Max El. time (UTC)
Max El. Az.
Max El.
End time (UTC)
End Az.
|